Weather History for Barrow, AK

Change the Weather History Date:

Friday, August 2, 2013

  Actual Average Record
Temperature  
Mean Temperature 52 °F 40 °F  
Max Temperature 57 °F 46 °F 68 °F (1985)
Min Temperature 46 °F 35 °F 26 °F (1945)
Degree Days  
Heating Degree Days 13 25  
Month to date heating degree days 24 50  
Since 1 June heating degree days 1431 1677  
Since 1 July heating degree days 653 797  
Cooling Degree Days 0    
Month to date cooling degree days 0  
Year to date cooling degree days 0  
Since 1 June cooling degree days 0  
Moisture  
Dew Point 48 °F    
Average Humidity 0    
Maximum Humidity 0    
Minimum Humidity 0    
Precipitation  
Precipitation 0.23 in 0.03 in 0.43 in (1925)
Month to date precipitation 0.23 0.07  
Year to date precipitation 3.90 2.07  
Snow  
Snow 0.00 in 0.00 in 0.20 in (2001)
Month to date snowfall 0.0 0.0  
Since 1 June snowfall 0.3 0.9  
Since 1 July snowfall 0.0 0.2  
Snow Depth 0.00 in    
Sea Level Pressure  
Sea Level Pressure 29.75 in    
Wind  
Wind Speed 7 mph (South)    
Max Wind Speed 15 mph    
Max Gust Speed 17 mph    
Visibility 7 miles    
Events Fog , Rain    
T = Trace of Precipitation, MM = Missing Value Source: NWS Daily Summary

Daily Weather History Graph

Daily Weather History Graph

Search for Another Location

Airport:

Trip Planner

Search our weather history database for the weather conditions in past years. The results will help you decide how hot, cold, wet, or windy it might be!

Date:

Astronomy

Aug. 02, 2013 Rise Set
Actual Time 3:10 AM AKDT 1:39 AM AKDT
Civil Twilight Sun does not rise Sun does not rise
Nautical Twilight Sun does not rise Sun does not rise
Astronomical Twilight Sun does not rise Sun does not rise
Moon No Moon Rise No Moon Set
Length of Visible Light 24h 00m
Length of Day
22h 28m
Waning Crescent, 15% of the Moon is Illuminated
Aug 2
Waning Crescent
Aug 6
New
Aug 14
First Quarter
Aug 20
Full
Aug 28
Last Quarter

Hourly Weather History & Observations

Time (AKDT) Temp. Windchill Dew Point Humidity Pressure Visibility Wind Dir Wind Speed Gust Speed Precip Events Conditions
12:53 AM 54.0 °F - 52.0 °F 93% 29.78 in 10.0 mi SSE 9.2 mph - N/A   Mostly Cloudy
1:53 AM 53.1 °F - 51.1 °F 93% 29.78 in 10.0 mi South 8.1 mph - N/A   Mostly Cloudy
2:53 AM 51.1 °F - 50.0 °F 96% 29.76 in 10.0 mi South 8.1 mph - N/A   Scattered Clouds
3:53 AM 50.0 °F - 50.0 °F 100% 29.77 in 5.0 mi South 8.1 mph - N/A   Mostly Cloudy
4:32 AM 51.8 °F - 51.8 °F 100% 29.76 in 5.0 mi South 5.8 mph - N/A   Scattered Clouds
4:51 AM 53.6 °F - 51.8 °F 94% 29.76 in 1.8 mi South 5.8 mph - N/A   Scattered Clouds
4:53 AM 53.1 °F - 52.0 °F 96% 29.76 in 1.2 mi South 5.8 mph - N/A   Scattered Clouds
4:56 AM 53.6 °F - 51.8 °F 94% 29.76 in 0.8 mi South 5.8 mph - N/A   Overcast
5:04 AM 53.6 °F - 51.8 °F 94% 29.76 in 0.2 mi South 4.6 mph - N/A Fog Fog
5:13 AM 53.6 °F - 51.8 °F 94% 29.76 in 0.2 mi South 6.9 mph - N/A Fog Fog
5:53 AM 51.1 °F - 50.0 °F 96% 29.75 in 0.2 mi South 6.9 mph - N/A Fog Fog
6:01 AM 51.8 °F - 50.0 °F 94% 29.75 in 0.2 mi South 6.9 mph - N/A Fog Fog
6:14 AM 51.8 °F - 50.0 °F 94% 29.75 in 0.2 mi South 6.9 mph - N/A Fog Fog
6:22 AM 51.8 °F - 50.0 °F 94% 29.75 in 1.0 mi South 6.9 mph - N/A   Scattered Clouds
6:42 AM 53.6 °F - 51.8 °F 94% 29.75 in 10.0 mi South 6.9 mph - N/A   Scattered Clouds
6:53 AM 53.1 °F - 52.0 °F 96% 29.75 in 10.0 mi SSW 8.1 mph - N/A   Scattered Clouds
7:53 AM 52.0 °F - 50.0 °F 93% 29.75 in 10.0 mi WSW 8.1 mph - N/A   Scattered Clouds
8:25 AM 50.0 °F - 48.2 °F 94% 29.75 in 10.0 mi West 8.1 mph - N/A   Scattered Clouds
8:53 AM 50.0 °F - 46.9 °F 89% 29.75 in 10.0 mi WSW 5.8 mph - N/A   Scattered Clouds
9:53 AM 50.0 °F - 46.9 °F 89% 29.76 in 4.0 mi WSW 5.8 mph - N/A   Mostly Cloudy
10:53 AM 51.1 °F - 46.9 °F 86% 29.76 in 10.0 mi SW 4.6 mph - N/A   Mostly Cloudy
11:53 AM 52.0 °F - 48.0 °F 86% 29.76 in 10.0 mi WSW 4.6 mph - N/A   Mostly Cloudy
12:53 PM 52.0 °F - 48.0 °F 86% 29.76 in 10.0 mi West 3.5 mph - N/A   Mostly Cloudy
1:53 PM 55.0 °F - 48.9 °F 80% 29.75 in 10.0 mi West 3.5 mph - N/A   Mostly Cloudy
2:53 PM 55.0 °F - 48.9 °F 80% 29.76 in 10.0 mi Calm Calm - N/A   Mostly Cloudy
3:53 PM 50.0 °F - 46.9 °F 89% 29.76 in 10.0 mi NNW 5.8 mph - N/A   Mostly Cloudy
4:53 PM 50.0 °F - 46.9 °F 89% 29.75 in 10.0 mi NNW 5.8 mph - N/A   Overcast
5:53 PM 51.1 °F - 46.9 °F 86% 29.75 in 10.0 mi North 5.8 mph - N/A   Overcast
6:53 PM 50.0 °F - 46.0 °F 86% 29.74 in 10.0 mi North 5.8 mph - N/A   Overcast
7:53 PM 48.0 °F - 46.0 °F 93% 29.73 in 10.0 mi NNE 8.1 mph - 0.00 in Rain Light Rain
8:53 PM 48.0 °F - 46.0 °F 93% 29.73 in 10.0 mi NNE 8.1 mph - 0.00 in Rain Light Rain
9:20 PM 46.4 °F 41.5 °F 44.6 °F 93% 29.72 in 10.0 mi NE 10.4 mph - 0.00 in Rain Light Rain
9:53 PM 46.9 °F - 46.0 °F 97% 29.72 in 8.0 mi NE 10.4 mph - 0.01 in Rain Light Rain
10:14 PM 46.4 °F 41.5 °F 44.6 °F 93% 29.71 in 5.0 mi NE 10.4 mph - 0.01 in Rain Light Rain
10:27 PM 46.4 °F 41.1 °F 44.6 °F 93% 29.71 in 5.0 mi NE 11.5 mph - 0.03 in Rain Light Rain
10:34 PM 46.4 °F 41.5 °F 44.6 °F 93% 29.71 in 6.0 mi NE 10.4 mph - 0.04 in Rain Light Rain
10:53 PM 46.0 °F 41.0 °F 45.0 °F 96% 29.71 in 6.0 mi NE 10.4 mph - 0.05 in Rain Light Rain
11:17 PM 46.4 °F 40.7 °F 44.6 °F 93% 29.70 in 6.0 mi NE 12.7 mph - 0.01 in Rain Light Rain
11:25 PM 46.4 °F 40.7 °F 44.6 °F 93% 29.71 in 5.0 mi NE 12.7 mph - 0.02 in Rain Rain
11:53 PM 46.0 °F 40.2 °F 44.1 °F 93% 29.70 in 3.0 mi NE 12.7 mph - 0.08 in Rain Rain